Home   Weather   Ontario   Past weeks

Flag for USA Past Weather in Ontario, Oregon, USA — Yesterday and Last 2 Weeks

Now
34 °F

Clear.


Feels Like: 22 °F
Forecast: 20 / 31 °F
Wind: 21 mph from Northwest

Location: Ontario Municipal Airport

Current Time: Jan 24, 2017 at 12:31:22 am

Latest Report: Jan 23, 2017 at 11:53 pm


Visibility: 10 mi

Pressure: 29.81 "Hg (27.47 "Hg at 656m altitude)

Humidity: 67%

Dew Point: 24 °F

Location of OntarioLocation

Past Weather in Ontario — Graph

°F

Ontario Temperature Yesterday

Maximum temperature yesterday: 35 °F (at 12:53 pm)
Minimum temperature yesterday: 22 °F (at 1:07 am)
Average temperature yesterday: 29 °F

High & Low Weather Summary for the Past Weeks

 TemperatureHumidityPressure
High40 °F (Jan 9, 3:53 pm)97% (Jan 10, 11:31 am)30.79 "Hg (Jan 10, 11:31 am)
Low-9 °F (Jan 16, 2:53 am)60% (Jan 9, 4:53 pm)29.30 "Hg (Jan 20, 7:21 pm)
Average21 °F86%30.04 "Hg
* Reported Jan 8 10:35 pm — Jan 23 10:53 pm, Ontario, Weather by CustomWeather, © 2017

Note: Actual official high and low records may vary slightly from our data, if they occured in-between our weather recording intervals... More about our weather records

Advertising

Ontario Weather History for the Previous 24 Hours

Scroll right to see more
 ConditionsComfort  
Time TempWeatherWind HumidityBarometerVisibility
10:53 pm
Mon, Jan 23
32 °FClear.13 mph73%29.82 "Hg10 mi
9:53 pm33 °FClear.24 mph72%29.80 "Hg10 mi
8:53 pm32 °FClear.10 mph73%29.80 "Hg10 mi
7:53 pm32 °FClear.6 mph73%29.80 "Hg10 mi
6:53 pm32 °FClear.7 mph69%29.80 "Hg10 mi
5:53 pm33 °FSunny.10 mph72%29.78 "Hg10 mi
4:53 pm34 °FPartly sunny.13 mph70%29.77 "Hg10 mi
3:53 pm35 °FOvercast.9 mph67%29.75 "Hg10 mi
2:53 pm34 °FOvercast.9 mph76%29.72 "Hg10 mi
1:53 pm34 °FPartly sunny.12 mph76%29.73 "Hg10 mi
12:53 pm35 °FPartly sunny.8 mph72%29.74 "Hg10 mi
11:53 am34 °FOvercast.5 mph73%29.75 "Hg10 mi
10:53 am30 °FOvercast.12 mph85%29.75 "Hg10 mi
9:53 am30 °FMostly cloudy.No wind85%29.75 "Hg10 mi
8:53 am28 °FMostly cloudy.10 mph85%29.72 "Hg10 mi
7:53 am27 °FOvercast.9 mph89%29.71 "Hg10 mi
6:53 am27 °FOvercast.12 mph89%29.70 "Hg10 mi
5:53 am24 °FPassing clouds.7 mph91%29.70 "Hg10 mi
5:10 am24 °FIce fog.5 mph91%29.64 "Hg3 mi
4:53 am22 °FIce fog.No wind89%29.70 "Hg0 mi
4:38 am22 °FIce fog.No wind92%29.64 "Hg2 mi
3:53 am24 °FIce fog.No wind91%29.70 "Hg6 mi
3:31 am25 °FPassing clouds.3 mph92%29.65 "Hg10 mi
2:53 am27 °FPassing clouds.6 mph89%29.72 "Hg10 mi
2:31 am26 °FPassing clouds.6 mph92%29.67 "Hg10 mi
1:53 am26 °FPassing clouds.3 mph88%29.72 "Hg10 mi
1:07 am22 °FIce fog.No wind89%29.66 "Hg6 mi
12:22 am25 °FIce fog.7 mph88%29.68 "Hg3 mi
Weather by CustomWeather, © 2017

See weather overviewHow to use our weather pages